This is the latest recevied weather packets stored in our database for station/object WW4HG. If no packets are shown the sender has not sent any weather packets the latest 10 day(s).
| Time | Temp. | Humidity | Pressure | Rain* | Wind** | Luminosity | Snow |
|---|---|---|---|---|---|---|---|
| 1778105365 | 26.11° C | 42% | 1014.3 hPa | 0 mm | - | 44 W/m² | - |
| 1778105060 | 26.11° C | 42% | 1014 hPa | 0 mm | - | 44 W/m² | - |
| 1778104756 | 26.67° C | 41% | 1014 hPa | 0 mm | - | 36 W/m² | - |
| 1778104453 | 26.67° C | 41% | 1014 hPa | 0 mm | - | 34 W/m² | - |
| 1778104148 | 26.67° C | 40% | 1014 hPa | 0 mm | - | 38 W/m² | - |
| 1778103846 | 26.67° C | 40% | 1014 hPa | 0 mm | - | 50 W/m² | - |
| 1778103543 | 27.22° C | 40% | 1014 hPa | 0 mm | - | 63 W/m² | - |
| 1778103241 | 27.22° C | 39% | 1014.3 hPa | 0 mm | - | 49 W/m² | - |
| 1778102938 | 27.22° C | 38% | 1014 hPa | 0 mm | - | 47 W/m² | - |
| 1778102634 | 27.22° C | 38% | 1014.3 hPa | 0 mm | - | 45 W/m² | - |
| 1778102328 | 27.22° C | 38% | 1014 hPa | 0 mm | - | 46 W/m² | - |
| 1778102025 | 27.22° C | 36% | 1014.3 hPa | 0 mm | - | 48 W/m² | - |
| 1778101722 | 27.22° C | 36% | 1014.3 hPa | 0 mm | - | 53 W/m² | - |
| 1778101419 | 27.22° C | 36% | 1014.3 hPa | 0 mm | - | 59 W/m² | - |
| 1778101116 | 27.22° C | 36% | 1014.3 hPa | 0 mm | - | 61 W/m² | - |
| 1778100812 | 27.78° C | 36% | 1014.3 hPa | 0 mm | - | 67 W/m² | - |
| 1778100509 | 27.78° C | 36% | 1014 hPa | 0 mm | - | 61 W/m² | - |
| 1778100206 | 27.78° C | 36% | 1014.3 hPa | 0 mm | - | 67 W/m² | - |
| 1778099904 | 27.78° C | 35% | 1014.3 hPa | 0 mm | - | 65 W/m² | - |
| 1778099601 | 27.78° C | 35% | 1014.6 hPa | 0 mm | - | 66 W/m² | - |
| 1778099298 | 27.78° C | 35% | 1014.3 hPa | 0 mm | - | 80 W/m² | - |
| 1778098995 | 27.78° C | 35% | 1014.6 hPa | 0 mm | - | 60 W/m² | - |
| 1778098691 | 27.78° C | 36% | 1014.6 hPa | 0 mm | - | 62 W/m² | - |
| 1778098389 | 27.78° C | 36% | 1015 hPa | 0 mm | - | 62 W/m² | - |
| 1778098086 | 27.78° C | 35% | 1014.6 hPa | 0 mm | - | 68 W/m² | - |
* Rain latest hour (hover to see other rain measurements)
** Current wind speed in m/s (hover to see current wind gust speed)